Wink, TX

1:44 AM CST on December 16, 2017 (GMT -0600)
Winkler County

Weather History for KINK - November, 2011

Change the Weather History Date:

Tuesday, November 22, 2011

  Actual Average Record
Temperature  
Mean Temperature 56 °F -  
Max Temperature 72 °F 67 °F 84 °F (2003)
Min Temperature 39 °F 35 °F 18 °F (1972)
Degree Days  
Heating Degree Days 10    
Growing Degree Days 6 (Base 50)    
Moisture  
Dew Point 31 °F    
Average Humidity 46    
Maximum Humidity 81    
Minimum Humidity 20    
Precipitation  
Precipitation 0.00 in - - ()
Sea Level Pressure  
Sea Level Pressure 30.10 in    
Wind  
Wind Speed 9 mph (WNW)    
Max Wind Speed 18 mph    
Max Gust Speed 29 mph    
Visibility 10 miles    
Events      
Averages and records for this station are not official NWS values.
T = Trace of Precipitation, MM = Missing Value Source: NWS Daily Summary

Daily Weather History Graph

Daily Weather History Graph

Search for Another Location

Airport or City:

Trip Planner

Search our weather history database for the weather conditions in past years. The results will help you decide how hot, cold, wet, or windy it might be!

Date:

Astronomy

Nov. 22, 2011 Rise Set
Actual Time 7:27 AM CST 5:50 PM CST
Civil Twilight 7:00 AM CST 6:16 PM CST
Nautical Twilight 6:31 AM CST 6:46 PM CST
Astronomical Twilight 6:01 AM CST 7:15 PM CST
Moon 4:27 AM CST (11/22) 3:45 PM CST (11/22)
Length of Visible Light 11h 15m
Length of Day
10h 23m
Waning Crescent, 9% of the Moon is Illuminated
Nov 22
Waning Crescent
Nov 25
New
Dec 2
First Quarter
Dec 10
Full
Dec 17
Last Quarter

Hourly Weather History & Observations

Time (CST) Temp. Windchill Dew Point Humidity Pressure Visibility Wind Dir Wind Speed Gust Speed Precip Events Conditions
12:53 AM 50.0 °F - 35.1 °F 57% 30.01 in 10.0 mi West 10.4 mph - N/A   Clear
1:53 AM 50.0 °F - 36.0 °F 59% 30.01 in 10.0 mi West 11.5 mph - N/A   Clear
2:53 AM 48.0 °F - 36.0 °F 63% 30.02 in 10.0 mi WNW 4.6 mph - N/A   Clear
3:53 AM 44.1 °F 40.8 °F 35.1 °F 71% 30.01 in 10.0 mi WNW 5.8 mph - N/A   Clear
4:53 AM 39.9 °F 35.8 °F 34.0 °F 79% 30.04 in 10.0 mi WNW 5.8 mph - N/A   Clear
5:53 AM 41.0 °F 35.2 °F 35.1 °F 79% 30.05 in 10.0 mi West 9.2 mph - N/A   Clear
6:53 AM 41.0 °F 38.0 °F 35.6 °F 81% 30.13 in 10.0 mi West 4.6 mph - N/A   Clear
7:53 AM 43.0 °F 38.8 °F 35.1 °F 74% 30.10 in 10.0 mi West 6.9 mph - N/A   Clear
8:53 AM 54.0 °F - 37.0 °F 53% 30.10 in 10.0 mi West 11.5 mph - N/A   Clear
9:53 AM 60.8 °F - 33.8 °F 36% 30.19 in 10.0 mi WNW 18.4 mph - N/A   Clear
10:53 AM 64.0 °F - 32.0 °F 30% 30.13 in 10.0 mi NW 18.4 mph 28.8 mph N/A   Clear
11:53 AM 68.0 °F - 30.0 °F 24% 30.11 in 10.0 mi NW 18.4 mph - N/A   Clear
12:53 PM 69.1 °F - 30.0 °F 23% 30.08 in 10.0 mi WNW 13.8 mph 21.9 mph N/A   Clear
1:53 PM 71.1 °F - 28.9 °F 21% 30.06 in 10.0 mi NNW 11.5 mph - N/A   Clear
2:53 PM 71.1 °F - 28.0 °F 20% 30.05 in 10.0 mi NW 8.1 mph - N/A   Clear
3:53 PM 72.0 °F - 28.0 °F 20% 30.06 in 10.0 mi WSW 5.8 mph - N/A   Clear
4:53 PM 71.1 °F - 28.0 °F 20% 30.08 in 10.0 mi NW 6.9 mph - N/A   Clear
5:53 PM 64.9 °F - 27.0 °F 24% 30.10 in 10.0 mi WSW 4.6 mph - N/A   Clear
6:53 PM 57.0 °F - 26.1 °F 30% 30.13 in 10.0 mi West 8.1 mph - N/A   Clear
7:53 PM 55.0 °F - 25.0 °F 31% 30.16 in 10.0 mi WNW 4.6 mph - N/A   Clear
8:53 PM 53.1 °F - 26.1 °F 35% 30.16 in 10.0 mi Calm Calm - N/A   Clear
9:53 PM 48.0 °F - 26.1 °F 42% 30.19 in 10.0 mi ENE 3.5 mph - N/A   Clear
10:53 PM 45.0 °F 41.2 °F 32.0 °F 60% 30.21 in 10.0 mi South 6.9 mph - N/A   Clear
11:53 PM 44.1 °F - 34.0 °F 68% 30.22 in 10.0 mi Calm Calm - N/A   Clear